Location: Mountain View
(37.3861°N, 122.0839°W)
Time: 22:46:17
(UTC-07:00)

ISS - Pass Details

Date: 05 October 2021
Orbit: 417 x 423 km, 51.6° (Epoch: 28 October)

Event Time Altitude Azimuth Distance (km) Brightness Sun altitude
Rises 20:42:05 0° 299° (WNW) 2,362 1.3 -24.0°
Reaches altitude 10° 20:44:24 10° 285° (WNW) 1,496 0.1 -24.4°
Enters shadow 20:46:57 25° 237° (WSW) 896 -1.7 -24.9°
